Sanford, NC

12:10 PM EDT on April 25, 2017 (GMT -0400)
Raleigh Executive Jetport

Weather History for KTTA - December, 2013

Change the Weather History Date:

Friday, December 20, 2013

  Actual Average (KHRJ) Record (KHRJ)
Temperature  
Mean Temperature 51 °F -  
Max Temperature 67 °F 55 °F 69 °F (2008)
Min Temperature 35 °F 32 °F 15 °F (2004)
Degree Days  
Heating Degree Days 14    
Growing Degree Days 1 (Base 50)    
Moisture  
Dew Point 42 °F    
Average Humidity 79    
Maximum Humidity 96    
Minimum Humidity 53    
Precipitation  
Precipitation 0.00 in - - ()
Sea Level Pressure  
Sea Level Pressure 30.20 in    
Wind  
Wind Speed 1 mph (SW)    
Max Wind Speed 12 mph    
Max Gust Speed -    
Visibility 10 miles    
Events      
Averages and records for this station are not official NWS values.
T = Trace of Precipitation, MM = Missing Value Source: NWS Daily Summary

Daily Weather History Graph

Daily Weather History Graph

Search for Another Location

Airport or City:

Trip Planner

Search our weather history database for the weather conditions in past years. The results will help you decide how hot, cold, wet, or windy it might be!

Date:

Astronomy

Dec. 20, 2013 Rise Set
Actual Time 7:21 AM EST 5:06 PM EST
Civil Twilight 6:53 AM EST 5:35 PM EST
Nautical Twilight 6:21 AM EST 6:07 PM EST
Astronomical Twilight 5:50 AM EST 6:38 PM EST
Moon 8:20 PM EST (12/20) 9:19 AM EST (12/20)
Length of Visible Light 10h 41m
Length of Day
9h 45m
Waning Gibbous, 90% of the Moon is Illuminated
Dec 20
Waning Gibbous
Dec 25
Last Quarter
Jan 1
New
Jan 7
First Quarter
Jan 15
Full

Hourly Weather History & Observations

Time (EST) Temp. Dew Point Humidity Pressure Visibility Wind Dir Wind Speed Gust Speed Precip Events Conditions
12:15 AM 38.1 °F 31.3 °F 76% 30.24 in 10.0 mi Calm Calm - N/A   Clear
12:35 AM 37.6 °F 31.3 °F 78% 30.24 in 10.0 mi Calm Calm - N/A   Clear
12:55 AM 37.6 °F 31.6 °F 79% 30.24 in 10.0 mi Calm Calm - N/A   Clear
1:15 AM 36.7 °F 32.0 °F 83% 30.24 in 10.0 mi Calm Calm - N/A   Clear
1:35 AM 35.8 °F 32.2 °F 87% 30.23 in 10.0 mi Calm Calm - N/A   Clear
1:55 AM 36.9 °F 32.0 °F 83% 30.23 in 10.0 mi Calm Calm - N/A   Clear
2:15 AM 37.4 °F 32.9 °F 84% 30.23 in 10.0 mi Calm Calm - N/A   Clear
2:35 AM 36.1 °F 32.9 °F 88% 30.23 in 10.0 mi Calm Calm - N/A   Clear
2:55 AM 35.8 °F 32.7 °F 89% 30.23 in 10.0 mi Calm Calm - N/A   Clear
3:15 AM 36.1 °F 32.7 °F 87% 30.23 in 10.0 mi Calm Calm - N/A   Clear
3:35 AM 36.0 °F 32.9 °F 89% 30.23 in 10.0 mi Calm Calm - N/A   Clear
3:55 AM 35.8 °F 33.1 °F 90% 30.23 in 10.0 mi Calm Calm - N/A   Clear
4:15 AM 36.3 °F 32.9 °F 87% 30.23 in 10.0 mi Calm Calm - N/A   Clear
4:35 AM 36.3 °F 34.2 °F 92% 30.23 in 10.0 mi Calm Calm - N/A   Mostly Cloudy
4:55 AM 35.6 °F 33.3 °F 91% 30.23 in 10.0 mi Calm Calm - N/A   Mostly Cloudy
5:15 AM 36.7 °F 34.3 °F 91% 30.24 in 10.0 mi Calm Calm - N/A   Overcast
5:35 AM 36.9 °F 34.2 °F 90% 30.24 in 10.0 mi Calm Calm - N/A   Scattered Clouds
5:55 AM 35.6 °F 33.4 °F 92% 30.25 in 10.0 mi Calm Calm - N/A   Scattered Clouds
6:15 AM 37.0 °F 35.1 °F 93% 30.25 in 10.0 mi Calm Calm - N/A   Overcast
6:35 AM 37.8 °F 35.6 °F 92% 30.25 in 10.0 mi Calm Calm - N/A   Mostly Cloudy
6:55 AM 36.7 °F 34.9 °F 93% 30.25 in 10.0 mi Calm Calm - N/A   Scattered Clouds
7:15 AM 36.0 °F 34.2 °F 93% 30.25 in 10.0 mi Calm Calm - N/A   Clear
7:35 AM 36.3 °F 34.5 °F 93% 30.25 in 10.0 mi Calm Calm - N/A   Clear
7:55 AM 36.5 °F 35.4 °F 96% 30.25 in 10.0 mi Calm Calm - N/A   Scattered Clouds
8:15 AM 38.1 °F 36.5 °F 94% 30.25 in 10.0 mi Calm Calm - N/A   Scattered Clouds
8:35 AM 40.1 °F 36.9 °F 88% 30.25 in 10.0 mi Calm Calm - N/A   Clear
8:55 AM 43.3 °F 37.8 °F 81% 30.25 in 10.0 mi Calm Calm - N/A   Clear
9:15 AM 45.7 °F 39.0 °F 78% 30.25 in 10.0 mi Calm Calm - N/A   Scattered Clouds
9:35 AM 48.2 °F 40.6 °F 75% 30.26 in 10.0 mi Calm Calm - N/A   Scattered Clouds
9:55 AM 50.0 °F 42.1 °F 74% 30.25 in 10.0 mi Calm Calm - N/A   Scattered Clouds
10:15 AM 52.9 °F 43.9 °F 71% 30.26 in 10.0 mi Calm Calm - N/A   Clear
10:35 AM 56.5 °F 46.2 °F 68% 30.25 in 10.0 mi Calm Calm - N/A   Clear
10:55 AM 58.3 °F 47.7 °F 68% 30.24 in 10.0 mi Calm Calm - N/A   Scattered Clouds
11:15 AM 59.5 °F 49.1 °F 68% 30.24 in 10.0 mi WSW 3.5 mph - N/A   Clear
11:35 AM 60.6 °F 49.3 °F 66% 30.22 in 10.0 mi WSW 6.9 mph - N/A   Clear
11:55 AM 61.0 °F 49.3 °F 65% 30.22 in 10.0 mi Calm Calm - N/A   Clear
12:15 PM 62.1 °F 50.2 °F 65% 30.20 in 10.0 mi Calm Calm - N/A   Clear
12:35 PM 64.9 °F 51.6 °F 62% 30.19 in 10.0 mi SSW 5.8 mph - N/A   Clear
12:55 PM 65.1 °F 51.4 °F 61% 30.17 in 10.0 mi South 8.1 mph - N/A   Clear
1:15 PM 66.2 °F 51.8 °F 60% 30.16 in 10.0 mi SSW 9.2 mph - N/A   Clear
1:35 PM 66.6 °F 51.4 °F 58% 30.16 in 10.0 mi SSW 11.5 mph - N/A   Clear
1:55 PM 67.3 °F 50.9 °F 56% 30.14 in 10.0 mi South 10.4 mph - N/A   Clear
2:15 PM 66.9 °F 50.5 °F 56% 30.14 in 10.0 mi SW 9.2 mph - N/A   Clear
2:35 PM 66.4 °F 51.1 °F 58% 30.14 in 10.0 mi WSW 5.8 mph - N/A   Clear
2:55 PM 66.7 °F 49.6 °F 54% 30.14 in 10.0 mi WSW 9.2 mph - N/A   Clear
3:15 PM 66.9 °F 49.5 °F 53% 30.14 in 10.0 mi SW 6.9 mph - N/A   Clear
3:35 PM 66.4 °F 48.6 °F 53% 30.14 in 10.0 mi SW 9.2 mph - N/A   Mostly Cloudy
3:55 PM 65.5 °F 47.7 °F 53% 30.15 in 10.0 mi SW 6.9 mph - N/A   Overcast
4:15 PM 64.0 °F 48.2 °F 56% 30.16 in 10.0 mi SSW 8.1 mph - N/A   Mostly Cloudy
4:35 PM 63.9 °F 48.0 °F 56% 30.16 in 10.0 mi SSW 4.6 mph - N/A   Scattered Clouds
4:55 PM 63.9 °F 47.7 °F 56% 30.17 in 10.0 mi SW 6.9 mph - N/A   Mostly Cloudy
5:15 PM 61.2 °F 47.5 °F 61% 30.16 in 10.0 mi South 4.6 mph - N/A   Scattered Clouds
5:35 PM 60.4 °F 47.7 °F 63% 30.17 in 10.0 mi South 4.6 mph - N/A   Scattered Clouds
5:55 PM 59.4 °F 48.2 °F 67% 30.17 in 10.0 mi Calm Calm - N/A   Scattered Clouds
6:15 PM 58.6 °F 48.4 °F 69% 30.17 in 10.0 mi Calm Calm - N/A   Scattered Clouds
6:35 PM 55.4 °F 47.7 °F 75% 30.17 in 10.0 mi Calm Calm - N/A   Clear
6:55 PM 54.5 °F 48.4 °F 80% 30.17 in 10.0 mi Calm Calm - N/A   Scattered Clouds
7:15 PM 52.9 °F 48.2 °F 84% 30.17 in 10.0 mi Calm Calm - N/A   Scattered Clouds
7:35 PM 52.9 °F 48.4 °F 85% 30.17 in 10.0 mi Calm Calm - N/A   Clear
7:55 PM 52.7 °F 48.2 °F 85% 30.17 in 10.0 mi Calm Calm - N/A   Clear
8:15 PM 50.9 °F 47.5 °F 88% 30.17 in 10.0 mi Calm Calm - N/A   Clear
8:35 PM 48.4 °F 46.0 °F 92% 30.17 in 10.0 mi Calm Calm - N/A   Clear
8:55 PM 49.1 °F 46.4 °F 90% 30.18 in 10.0 mi Calm Calm - N/A   Clear
9:15 PM 48.6 °F 46.2 °F 92% 30.17 in 10.0 mi Calm Calm - N/A   Clear
9:35 PM 47.8 °F 45.9 °F 93% 30.17 in 10.0 mi Calm Calm - N/A   Scattered Clouds
9:55 PM 48.0 °F 46.0 °F 93% 30.17 in 10.0 mi Calm Calm - N/A   Clear
10:15 PM 47.1 °F 45.7 °F 95% 30.17 in 10.0 mi Calm Calm - N/A   Clear
10:35 PM 46.8 °F 45.5 °F 95% 30.17 in 10.0 mi Calm Calm - N/A   Clear
10:55 PM 46.6 °F 45.5 °F 96% 30.17 in 10.0 mi Calm Calm - N/A   Clear
11:15 PM 46.4 °F 44.4 °F 93% 30.17 in 10.0 mi Calm Calm - N/A   Clear
11:35 PM 45.3 °F 44.1 °F 95% 30.17 in 7.0 mi Calm Calm - N/A   Clear
11:55 PM 45.5 °F 44.4 °F 96% 30.17 in 10.0 mi Calm Calm - N/A   Mostly Cloudy